{"data":{"norad_id":67380,"epoch":"2026-09-20T22:35:03.903360Z","epoch_age_seconds":62344,"freshness":"FRESH","line1":"1 67380U 26004T   26263.94101740  .00000392  00000+0  51055-4 0  9994","line2":"2 67380  97.8073 260.6916 0001519 151.9314 208.1984 14.85916047 37502","mean_motion":14.85916047,"eccentricity":0.0001519,"inclination_deg":97.8073,"raan_deg":260.6916,"arg_perigee_deg":151.9314,"mean_anomaly_deg":208.1984,"bstar":5.1055e-5,"rev_number":3750,"period_min":96.909916472556,"perigee_km":609.6504284286,"apogee_km":611.77364076531,"semimajor_km":6988.849034597,"source":"CELESTRAK","updated_at":"2026-09-21T09:00:16.595877Z"}}